• en Belgique
  • Liste des pays
  • À 7 jours
  • Température de l'eau
  • Carte satellitaire
  • Carte météo
  • Widgets météo
  • user-avatar
    Se connecter

    Météo par heure à Polyana

    Ce jour, 23 Juillet, Lundi

    Heure Température Précipitation Vent Pression Humidité
    00:00 +18°C° 0 mm 2 m/s 745 mmHg 98%
    01:00 +17°C° 0 mm 2 m/s 745 mmHg 98%
    02:00 +18°C° 0 mm 1 m/s 745 mmHg 98%
    03:00 +17°C° 0 mm 2 m/s 745 mmHg 98%
    04:00 +17°C° 0 mm 2 m/s 745 mmHg 97%
    05:00 +18°C° 0 mm 2 m/s 745 mmHg 96%
    06:00 +19°C° 0 mm 2 m/s 745 mmHg 90%
    07:00 +21°C° 0 mm 2 m/s 746 mmHg 83%
    08:00 +22°C° 0 mm 3 m/s 746 mmHg 76%
    09:00 +24°C° 0,3 mm 3 m/s 746 mmHg 75%
    10:00 +24°C° 0,3 mm 3 m/s 746 mmHg 74%
    11:00 +25°C° 0,3 mm 3 m/s 746 mmHg 73%
    12:00 +25°C° 0,7 mm 3 m/s 745 mmHg 74%
    13:00 +25°C° 0,7 mm 3 m/s 745 mmHg 75%
    14:00 +26°C° 0,7 mm 3 m/s 745 mmHg 75%
    15:00 +25°C° 0,2 mm 3 m/s 745 mmHg 75%
    16:00 +25°C° 0,2 mm 3 m/s 745 mmHg 75%
    17:00 +25°C° 0,2 mm 3 m/s 745 mmHg 75%
    18:00 +24°C° 0,1 mm 3 m/s 745 mmHg 80%
    19:00 +21°C° 0,1 mm 2 m/s 746 mmHg 86%
    20:00 +20°C° 0,1 mm 2 m/s 746 mmHg 92%
    21:00 +19°C° 0 mm 2 m/s 746 mmHg 94%
    22:00 +18°C° 0 mm 2 m/s 746 mmHg 95%
    23:00 +18°C° 0 mm 2 m/s 746 mmHg 96%

    Demain, 24 Juillet, Mardi

    Heure Température Précipitation Vent Pression Humidité
    00:00 +17°C° 0 mm 2 m/s 746 mmHg 97%
    01:00 +16°C° 0 mm 2 m/s 747 mmHg 97%
    02:00 +15°C° 0 mm 2 m/s 747 mmHg 98%
    03:00 +15°C° 0 mm 2 m/s 747 mmHg 97%
    04:00 +15°C° 0 mm 2 m/s 747 mmHg 96%
    05:00 +15°C° 0 mm 2 m/s 747 mmHg 96%
    06:00 +17°C° 0 mm 2 m/s 747 mmHg 89%
    07:00 +18°C° 0 mm 3 m/s 747 mmHg 83%
    08:00 +19°C° 0 mm 3 m/s 747 mmHg 77%
    09:00 +20°C° 0 mm 3 m/s 747 mmHg 75%
    10:00 +20°C° 0 mm 3 m/s 747 mmHg 74%
    11:00 +21°C° 0 mm 3 m/s 747 mmHg 73%
    12:00 +21°C° 0 mm 3 m/s 747 mmHg 74%
    13:00 +21°C° 0 mm 3 m/s 747 mmHg 75%
    14:00 +21°C° 0 mm 2 m/s 747 mmHg 76%
    15:00 +21°C° 0 mm 2 m/s 747 mmHg 76%
    16:00 +21°C° 0 mm 3 m/s 747 mmHg 77%
    17:00 +21°C° 0 mm 3 m/s 747 mmHg 77%
    18:00 +20°C° 0 mm 2 m/s 747 mmHg 82%
    19:00 +19°C° 0 mm 2 m/s 747 mmHg 86%
    20:00 +18°C° 0 mm 2 m/s 747 mmHg 90%
    21:00 +18°C° 0 mm 2 m/s 748 mmHg 93%
    22:00 +17°C° 0 mm 2 m/s 748 mmHg 96%
    23:00 +18°C° 0 mm 1 m/s 748 mmHg 98%

    Après-demain, 25 Juillet, Mercredi

    Heure Température Précipitation Vent Pression Humidité
    00:00 +18°C° 0 mm 1 m/s 748 mmHg 98%
    01:00 +18°C° 0 mm 1 m/s 748 mmHg 98%
    02:00 +16°C° 0 mm 1 m/s 748 mmHg 99%
    03:00 +18°C° 0 mm 1 m/s 748 mmHg 98%
    04:00 +17°C° 0 mm 2 m/s 748 mmHg 97%
    05:00 +17°C° 0 mm 2 m/s 748 mmHg 97%
    06:00 +18°C° 0 mm 2 m/s 748 mmHg 95%
    07:00 +19°C° 0 mm 2 m/s 748 mmHg 93%
    08:00 +19°C° 0 mm 2 m/s 748 mmHg 92%
    09:00 +20°C° 0 mm 2 m/s 749 mmHg 88%
    10:00 +21°C° 0 mm 2 m/s 749 mmHg 85%
    11:00 +23°C° 0 mm 2 m/s 749 mmHg 82%
    12:00 +24°C° 0,6 mm 2 m/s 749 mmHg 81%
    13:00 +25°C° 0,6 mm 2 m/s 748 mmHg 80%
    14:00 +25°C° 0,6 mm 2 m/s 748 mmHg 80%
    15:00 +25°C° 0,7 mm 2 m/s 748 mmHg 82%
    16:00 +25°C° 0,7 mm 2 m/s 748 mmHg 83%
    17:00 +25°C° 0,7 mm 2 m/s 748 mmHg 85%
    18:00 +23°C° 0,2 mm 2 m/s 748 mmHg 88%
    19:00 +21°C° 0,2 mm 2 m/s 749 mmHg 90%
    20:00 +20°C° 0,2 mm 2 m/s 749 mmHg 92%
    21:00 +19°C° 0 mm 2 m/s 749 mmHg 93%
    22:00 +18°C° 0 mm 2 m/s 749 mmHg 93%
    23:00 +17°C° 0 mm 2 m/s 749 mmHg 93%

    26 Juillet, Jeudi

    Heure Température Précipitation Vent Pression Humidité
    00:00 +16°C° 0 mm 2 m/s 749 mmHg 94%
    01:00 +16°C° 0 mm 2 m/s 750 mmHg 95%
    02:00 +15°C° 0 mm 2 m/s 750 mmHg 95%
    03:00 +15°C° 0 mm 2 m/s 750 mmHg 95%
    04:00 +15°C° 0 mm 2 m/s 750 mmHg 94%
    05:00 +15°C° 0 mm 1 m/s 750 mmHg 93%
    06:00 +17°C° 0 mm 2 m/s 750 mmHg 88%
    07:00 +19°C° 0 mm 2 m/s 750 mmHg 83%
    08:00 +20°C° 0 mm 2 m/s 750 mmHg 77%
    09:00 +21°C° 0 mm 2 m/s 750 mmHg 74%
    10:00 +23°C° 0 mm 2 m/s 750 mmHg 71%
    11:00 +25°C° 0 mm 2 m/s 750 mmHg 68%
    12:00 +25°C° 0,1 mm 2 m/s 750 mmHg 68%
    13:00 +25°C° 0,1 mm 2 m/s 750 mmHg 68%
    14:00 +26°C° 0,1 mm 2 m/s 749 mmHg 68%
    15:00 +26°C° 0,1 mm 2 m/s 749 mmHg 69%
    16:00 +26°C° 0,1 mm 2 m/s 749 mmHg 70%
    17:00 +26°C° 0,1 mm 1 m/s 749 mmHg 71%
    18:00 +24°C° 0 mm 1 m/s 749 mmHg 78%
    19:00 +23°C° 0 mm 1 m/s 749 mmHg 85%
    20:00 +21°C° 0 mm 1 m/s 749 mmHg 92%
    21:00 +20°C° 0 mm 1 m/s 749 mmHg 93%
    22:00 +20°C° 0 mm 1 m/s 750 mmHg 94%
    23:00 +19°C° 0 mm 1 m/s 750 mmHg 96%

    27 Juillet, Vendredi

    Heure Température Précipitation Vent Pression Humidité
    00:00 +17°C° 0 mm 0 m/s 750 mmHg 96%
    01:00 +17°C° 0 mm 0 m/s 750 mmHg 96%
    02:00 +16°C° 0 mm 0 m/s 750 mmHg 96%
    03:00 +17°C° 0 mm 0 m/s 750 mmHg 95%
    04:00 +17°C° 0 mm 0 m/s 750 mmHg 95%
    05:00 +17°C° 0 mm 0 m/s 750 mmHg 94%
    06:00 +19°C° 0 mm 0 m/s 750 mmHg 87%
    07:00 +22°C° 0 mm 0 m/s 750 mmHg 79%
    08:00 +24°C° 0 mm 0 m/s 750 mmHg 72%
    09:00 +27°C° 0 mm 1 m/s 750 mmHg 66%
    10:00 +28°C° 0 mm 1 m/s 750 mmHg 60%
    11:00 +30°C° 0 mm 1 m/s 750 mmHg 55%
    12:00 +30°C° 0 mm 1 m/s 750 mmHg 53%
    13:00 +31°C° 0 mm 1 m/s 750 mmHg 51%
    14:00 +31°C° 0 mm 1 m/s 749 mmHg 49%
    15:00 +31°C° 0,1 mm 1 m/s 749 mmHg 53%
    16:00 +30°C° 0,1 mm 1 m/s 749 mmHg 57%
    17:00 +30°C° 0,1 mm 1 m/s 749 mmHg 60%
    18:00 +27°C° 0,2 mm 1 m/s 749 mmHg 67%
    19:00 +25°C° 0,2 mm 1 m/s 750 mmHg 74%
    20:00 +23°C° 0,2 mm 1 m/s 750 mmHg 81%
    21:00 +23°C° 0 mm 1 m/s 750 mmHg 83%
    22:00 +22°C° 0 mm 1 m/s 750 mmHg 85%
    23:00 +21°C° 0 mm 1 m/s 750 mmHg 88%

    28 Juillet, Samedi

    Heure Température Précipitation Vent Pression Humidité
    00:00 +21°C° 0 mm 1 m/s 750 mmHg 89%
    01:00 +20°C° 0 mm 1 m/s 750 mmHg 91%
    02:00 +19°C° 0 mm 2 m/s 750 mmHg 93%
    03:00 +19°C° 0 mm 2 m/s 750 mmHg 93%
    04:00 +19°C° 0 mm 2 m/s 750 mmHg 93%
    05:00 +19°C° 0 mm 2 m/s 750 mmHg 93%
    06:00 +20°C° 0 mm 2 m/s 750 mmHg 89%
    07:00 +21°C° 0 mm 3 m/s 750 mmHg 84%
    08:00 +24°C° 0 mm 3 m/s 751 mmHg 80%
    09:00 +24°C° 0 mm 3 m/s 751 mmHg 77%
    10:00 +25°C° 0 mm 4 m/s 751 mmHg 74%
    11:00 +25°C° 0 mm 4 m/s 751 mmHg 71%
    12:00 +25°C° 0 mm 4 m/s 751 mmHg 71%
    13:00 +23°C° 0 mm 4 m/s 751 mmHg 72%
    14:00 +23°C° 0 mm 5 m/s 751 mmHg 72%
    15:00 +22°C° 0 mm 5 m/s 751 mmHg 74%
    16:00 +22°C° 0 mm 4 m/s 751 mmHg 75%
    17:00 +21°C° 0 mm 4 m/s 751 mmHg 77%
    18:00 +20°C° 0 mm 4 m/s 752 mmHg 79%
    19:00 +19°C° 0 mm 4 m/s 752 mmHg 82%
    20:00 +18°C° 0 mm 4 m/s 752 mmHg 84%
    21:00 +18°C° 0 mm 4 m/s 752 mmHg 84%
    22:00 +18°C° 0 mm 4 m/s 752 mmHg 84%
    23:00 +18°C° 0 mm 4 m/s 753 mmHg 83%
    Voir plus